www.pogodaiklimat.ru

Погода и климат >> Архив погоды >> Россия >> Краснодарский край >> Тамань


ПОГОДА в Тамани

  • Прогноз погоды в Тамани
  • Монитор погоды в Тамани
  • Климат города

АРХИВ ПОГОДЫ в Тамани

Время (UTC), дата Ветер
(напр.,м/с)
 
Видим.   Явления Облачность Т
(С)
Тd
(С)
f
(%)
Тe
(С)
Тes
(С)
Комфортность P
(гПа)
Po
(гПа)
Тmin
(С)
Tmax
(С)
R
(мм)
R24
(мм)
S
(см)
03 13.09 В 3 10 км ясно +19.1 +17.0 88 +21 +21 комфорт 1021.2 1019.3 +18.2
06 13.09 СВ 3 20 км ясно +21.9 +16.9 73 +26 +30 душно 1020.4 1018.5
09 13.09 С 4 20 км 1/0
[Ci fib]
+23.9 +18.4 71 +28 +36 душно 1019.4 1017.5
12 13.09 В 4 50 км 1/0
[Ci fib]
+25.2 +19.3 70 +30 +35 душно 1019.3 1017.4
15 13.09 СВ 3 20 км 8/0
[Cs]
+24.1 +18.0 69 +28 +29 душно 1015.0 1013.2 +25.3
18 13.09 СВ 4 10 км ясно +23.2 +17.7 71 +29 +29 душно 1013.6 1011.7
21 13.09 В 1 10 км 3/0
[Ci fib]
+23.3 +17.8 71 +29 +29 душно 1014.1 1012.2
00 14.09 В 5-10
{11}
10 км 6/0
[Ac As]
+22.4 +14.3 60 +26 +26 жарко 1010.0 1008.2
03 14.09 СВ 5-10
{10}
10 км 9/8 1000 м
[Sc Ac trans]
+21.6 +13.2 59 +24 +24 комфорт 1010.1 1008.2 +21.1
06 14.09 СВ 7-11
{15}
10 км {гроза} 10/8 600 м
[Cb calv Ac As]
+20.8 +11.9 57 +23 +23 комфорт 1009.3 1007.4 +20.7
09 14.09 В 3
{11}
10 км 10/10 600 м
[Sc]
+21.9 +13.1 57 +25 +25 комфорт 1009.6 1007.7
12 14.09 Ю 3
{12}
20 км 10/5 600 м
[Sc Ac trans]
+24.7 +18.1 67 +29 +30 душно 1008.0 1006.2
15 14.09 Ю 2 20 км 10/3 600 м
[Sc Ac As Cs]
+23.0 +17.5 71 +28 +28 душно 1009.7 1007.9 +25.3
18 14.09 В 3
{12}
10 км 3/0
[Ci fib]
+20.6 +16.2 76 +24 +24 комфорт 1009.5 1007.6
21 14.09 ЮВ 4 10 км 1/0
[Ci fib]
+20.0 +16.9 82 +23 +23 комфорт 1008.7 1006.8
00 15.09 ЮВ 1 10 км {гроза} 4/0
[Ac As]
+21.2 +18.7 86 +26 +26 душно 1008.3 1006.5
03 15.09 Ю 3 10 км {гроза} 5/3 1000 м
[Cu med, cong Ci fib]
+21.7 +18.7 83 +27 +27 душно 1008.3 1006.3 +19.6
06 15.09 Ю 3
{10}
20 км {гроза} 8/5 1000 м
[Cu med, cong Ac trans]
+22.6 +18.1 76 +28 +29 душно 1009.1 1007.2
09 15.09 Ю 5
{10}
20 км в посл. час дождь 6/4 1000 м
[Cu Sc Ac trans]
+23.6 +17.7 70 +28 +31 душно 1009.5 1007.7
12 15.09 Ю 5-10
{10}
20 км {дождь} 9/6 1000 м
[Sc Ac As]
+23.3 +16.8 67 +28 +29 душно 1009.0 1007.1
15 15.09 Ю 3
{12}
10 км в посл. час ливневой дождь 10/10 600 м
[Cb calv]
+20.9 +17.8 82 +25 +25 комфорт 1007.2 1005.3 +23.8 7
18 15.09 ЮЗ 2
{11}
10 км {ливн. осадки} 9/8 600 м
[Cb calv Ci sp]
+19.5 +17.6 89 +22 +22 комфорт 1008.2 1006.3
21 15.09 ЮЗ 2 50 км 3/1 600 м
[Cu med, cong Ci fib]
+19.5 +17.7 89 +22 +22 комфорт 1008.8 1007.0
00 16.09 З 3 10 км 3/0
[Ci fib]
+19.3 +17.6 90 +22 +22 комфорт 1009.3 1007.4
03 16.09 З 4 10 км в посл. час дождь 10/10 600 м
[Cb calv]
+19.4 +17.6 89 +21 +21 комфорт 1010.0 1008.1 +19.1 10
06 16.09 З 5
{10}
10 км 10/10 600 м
[Cb calv]
+20.2 +17.7 86 +23 +23 комфорт 1011.3 1009.4
09 16.09 СЗ 3
{11}
20 км 3/3 1000 м
[Cu med, cong Ci fib]
+22.6 +15.7 65 +27 +33 душно 1012.9 1011.0
12 16.09 З 6-11
{12}
20 км 8/6 1000 м
[Cb calv Ci ing]
+22.5 +16.2 68 +27 +28 душно 1013.9 1012.0
15 16.09 З 5
{12}
20 км 8/8 1000 м
[Sc]
+22.0 +16.3 70 +26 +26 душно 1015.0 1013.1 +23.4
18 16.09 З 5 10 км 10/0
[Ac und]
+21.9 +17.0 74 +26 +26 душно 1016.8 1014.9
21 16.09 С 3 10 км {гроза} 10/10 1000 м
[Sc]
+20.6 +16.8 79 +24 +24 комфорт 1017.6 1015.7
00 17.09 С 4 10 км {гроза} 10/10 1000 м
[Sc]
+19.9 +15.6 76 +22 +22 комфорт 1017.9 1016.0
03 17.09 С 2
{10}
10 км 3/3 1000 м
[Cu hum]
+19.0 +14.7 76 +21 +21 комфорт 1019.1 1017.2 +19.0
06 17.09 С 2 20 км 3/3 1000 м
[Cu hum]
+20.4 +13.0 62 +23 +26 комфорт 1021.0 1019.1 +18.8
09 17.09 С 2 20 км 1/1 1000 м
[Cu hum]
+20.4 +12.2 59 +23 +33 комфорт 1021.8 1019.9
12 17.09 С 3 20 км ясно +20.2 +9.9 52 +22 +28 комфорт 1022.1 1020.3
15 17.09 С 3 20 км 1/0
[Ci fib]
+19.5 +9.3 52 +21 +21 комфорт 1022.1 1020.2 +20.7
18 17.09 С 2 10 км 3/0
[Ci fib]
+19.3 +8.9 51 +21 +21 комфорт 1022.6 1020.7
21 17.09 С 2 10 км 3/0
[Ci fib]
+19.3 +10.4 56 +21 +21 комфорт 1022.8 1020.9
00 18.09 С 1 10 км 1/0
[Ci fib]
+18.6 +8.5 52 +20 +20 1022.5 1020.6
03 18.09 СВ 1 10 км 3/0
[Ci fib]
+18.1 +7.7 51 +19 +19 1022.8 1020.9 +18.1
06 18.09 В 2 20 км ясно +20.1 +7.7 45 +22 +26 комфорт 1022.8 1022.2 +17.4
09 18.09 СВ 2 20 км ясно +21.2 +8.0 43 +22 +33 комфорт 1024.3 1022.3
12 18.09 С 2 20 км ясно +22.2 +8.0 40 +23 +30 комфорт 1023.6 1021.7
15 18.09 В 1 20 км ясно +19.8 +7.5 45 +22 +22 комфорт 1023.1 1021.2 +22.2
18 18.09 штиль 0 10 км ясно +18.2 +8.6 53 +18 +18 1023.5 1021.6
21 18.09 СЗ 1 10 км ясно +15.6 +10.8 73 +16 +16 1023.4 1021.5
00 19.09 ЮЗ 1 10 км ясно +14.9 +11.6 81 +15 +15 1023.2 1021.3
03 19.09 ЮЗ 1 10 км ясно +14.4 +12.2 87 +15 +15 1023.3 1021.3 +13.3
06 19.09 штиль 0 20 км ясно +22.5 +14.1 59 +26 +31 жарко 1024.0 1022.1
09 19.09 ЮЗ 1 20 км ясно +24.5 +13.4 50 +27 +39 жарко 1024.5 1022.6
12 19.09 СВ 1 50 км ясно +25.6 +19.1 67 +31 +39 очень
душно
1024.3 1022.4
15 19.09 С 1 20 км ясно +22.0 +13.7 59 +25 +25 комфорт 1024.1 1022.2 +26.2
18 19.09 штиль 0 10 км ясно +19.6 +1.5 30 +20 +20 1022.7 1020.8
21 19.09 ЮЗ 1 10 км ясно +15.0 +12.9 87 +15 +15 1022.4 1020.5
00 20.09 штиль 0 10 км 3/0
[Ci fib]
+14.6 +13.1 91 +14 +14 1022.0 1020.1

 

Местоположение метеостанции Тамань (Краснодарский край, Россия): широта 45.22 долгота 36.72 высота над уровнем моря 17 м.

В архиве по умолчанию представлена погода в Тамани за последнюю неделю. Архивные данные за месяц целиком и за предыдущие месяцы, начиная с января 2011 года, Вы можете получить, выбрав интересующий диапазон дат из раскрывающегося списка и нажав кнопку "Ввод!".


*Определитесь, кто Вы:
робот инопланетянин человек

Внимание! Время в таблицах - всемирное. Для получения местного времени необходимо прибавить поправку, которая в Тамани равна 3 ч.

Смотрите также архив погоды в соседних городах и на ближайших метеорологических станциях:

Погода в Опасном (Крым, Россия) (18 км)
Погода в Керчи (Крым, Россия) (28 км)
Погода в Темрюке (Краснодарский край, Россия) (53 км)
Погода в Анапе (Краснодарский край, Россия) (58 км)
Погода на Мысовом (Крым, Россия) (75 км)
Погода в Новороссийске (Краснодарский край, Россия) (105 км)
Погода в Владиславовке (Крым, Россия) (105 км)
Погода в Крымске (Краснодарский край, Россия) (106 км)
Погода в Феодосии (Крым, Россия) (107 км)
Погода в Славянске-на-Кубани (Краснодарский край, Россия) (110 км)

Пояснения к столбцам:

Ветер - указаны скорость ветра в м/с - средняя за 10 мин, порывы в срок и между сроками (в фигурных скобках) и направление, откуда дует ветер: С - северный, СВ - северо-восточный, В - восточный, ЮВ - юго-восточный, Ю - южный, ЮЗ - юго-западный, З - западный, СЗ - северо-западный.
Видимость - горизонтальная дальность видимости в метрах или километрах. При видимости от 1 до 10 км при отсутствии осадков обычно наблюдается дымка, при ухудшении видимости до 1 км и менее - туман. В сухую погоду видимость может ухудшаться дымом, пылью или мглою.
Явления - указаны атмосферные явления, наблюдавшиеся в срок или в последний час перед сроком; фигурными скобками обозначены явления, наблюдавшиеся между сроками (за 1-3 часа до срока); квадратными скобками обозначены град или гололедные отложения с указанием их диаметра в мм.
Облачность - указаны через наклонную черту общая и нижняя облачность в баллах и высота нижней границы облаков в метрах; квадратными скобками обозначены формы облаков: Ci - перистые, Cs - перисто-слоистые, Cc - перисто-кучевые, Ac - высококучевые, As - высокослоистые, Sc - слоисто-кучевые, Ns - слоисто-дождевые, Cu - кучевые, Cb - кучево-дождевые. Подробнее классификацию облаков см. в Атласе облаков (PDF).
T - Температура воздуха - температура, измеренная на высоте 2 м над землей.
Td - Температура точки росы - температура, при понижении до которой содержащийся в воздухе водяной пар достигнет насыщения.
f - Относительная влажность воздуха - влажноcть воздуха, измеренная на высоте 2 м над землей.
Te - Эффективная температура - температура, которую ощущает одетый по сезону человек в тени. Характеристика душности погоды. При расчете учитывается влияние влажности воздуха и скорости ветра на теплоощущения человека.
Tes - Эффективная температура на солнце - температура, которую ощущает человек, с поправкой на солнечный нагрев. Характеристика знойности погоды. Зависит от высоты солнца над горизонтом, облачности и скорости ветра. Ночью, в пасмурную погоду, а также при ветре 12 м/с и более поправка равна нулю.
P - Атмосферное давление - приведенное к уровню моря атмосферное давление.
Po - Атмосферное давление - измеренное на уровне метеостанции атмосферное давление.
Tmin - Минимальная температура - минимум температуры воздуха на высоте 2 м над землей.
Tmax - Максимальная температура - максимум температуры воздуха на высоте 2 м над землей.
R - Количество осадков - Количество выпавших осадков за период времени, мм. При наведении курсора мыши на число - период времени, за который выпало указанное количество осадков.
R24 - Количество осадков - Количество выпавших осадков за 24 часа, мм.
S - Снежный покров - Высота снежного покрова, см. При наведении курсора мыши на число - состояние снежного покрова и степень покрытия местности в баллах.